Volver al catálogo

TITAN 3C TRANSTAGE DEB

ActivoHEO
NORAD 27792·DEBRIS·🇺🇸 United States

Lanzado Dec 21, 1965 desde Cape Canaveral Space Force Station

Loading…

Próximos Pases (próximas 24 horas)

TLE

ActualizadoSource: Space-Track

Época: Sep 13, 2026, 20:23 UTC

1 27792U 65108BG  26256.84986458  .00000689  00000-0  21081-2 0  9997
2 27792  26.1956 103.6850 6806229 122.1595 321.4509  2.78378486269148

Sigue TITAN 3C TRANSTAGE DEB en tiempo real con AllMySat

Download on the App Store